Kingsville NAS, TX

1:01 AM CDT on October 21, 2019 (GMT -0500)
Kingsville Naval Air Station

Weather History for KNQI - August, 2019

Change the Weather History Date:

Friday, August 23, 2019

  Actual Average Record
Temperature  
Mean Temperature 89 °F -  
Max Temperature 100 °F 92 °F 105 °F (2010)
Min Temperature 78 °F 73 °F 72 °F (2017)
Cooling Degree Days 24    
Growing Degree Days 39 (Base 50)    
Moisture  
Dew Point 75 °F    
Average Humidity 70    
Maximum Humidity 90    
Minimum Humidity 39    
Precipitation  
Precipitation 0.00 in - - ()
Sea Level Pressure  
Sea Level Pressure 29.84 in    
Wind  
Wind Speed 9 mph (SE)    
Max Wind Speed 21 mph    
Max Gust Speed 28 mph    
Visibility 10 miles    
Events      
Averages and records for this station are not official NWS values.
T = Trace of Precipitation, MM = Missing Value Source: NWS Daily Summary

Daily Weather History Graph

Daily Weather History Graph

Search for Another Location

Airport or City:

Astronomy

Aug. 23, 2019 Rise Set
Actual Time 7:05 AM CDT 8:01 PM CDT
Civil Twilight 6:41 AM CDT 8:25 PM CDT
Nautical Twilight 6:13 AM CDT 8:53 PM CDT
Astronomical Twilight 5:44 AM CDT 9:23 PM CDT
Moon 12:29 AM CDT (8/23) 2:04 PM CDT (8/23)
Length of Visible Light 13h 43m
Length of Day
12h 55m
Waning Gibbous, 49% of the Moon is Illuminated
Aug 23
Waning Gibbous
Aug 30
New
Sep 5
First Quarter
Sep 13
Full
Sep 21
Last Quarter

Hourly Weather History & Observations

Time (CDT) Temp. Heat Index Dew Point Humidity Pressure Visibility Wind Dir Wind Speed Gust Speed Precip Events Conditions
12:56 AM 82.9 °F 91.8 °F 77.0 °F 82% 29.86 in 10.0 mi SE 10.4 mph - N/A   Clear
1:56 AM 82.0 °F 90.2 °F 77.0 °F 85% 29.86 in 10.0 mi South 6.9 mph - N/A   Clear
2:56 AM 80.1 °F 85.4 °F 75.9 °F 87% 29.86 in 10.0 mi Calm Calm - N/A   Clear
3:56 AM 79.0 °F - 75.9 °F 90% 29.86 in 10.0 mi SE 3.5 mph - N/A   Clear
4:56 AM 78.1 °F - 75.0 °F 90% 29.85 in 10.0 mi SE 5.8 mph - N/A   Clear
5:56 AM 79.0 °F - 75.0 °F 88% 29.87 in 10.0 mi ESE 5.8 mph - N/A   Clear
6:56 AM 78.1 °F - 75.0 °F 90% 29.87 in 9.0 mi SE 3.5 mph - N/A   Scattered Clouds
7:56 AM 79.0 °F - 75.0 °F 88% 29.88 in 10.0 mi East 3.5 mph - N/A   Scattered Clouds
8:56 AM 86.0 °F 96.0 °F 75.9 °F 72% 29.87 in 10.0 mi South 9.2 mph - N/A   Partly Cloudy
9:56 AM 90.0 °F 100.2 °F 75.0 °F 61% 29.86 in 10.0 mi South 10.4 mph - N/A   Scattered Clouds
10:56 AM 91.9 °F 100.7 °F 73.0 °F 54% 29.86 in 10.0 mi Calm Calm - N/A   Scattered Clouds
11:56 AM 93.9 °F 103.4 °F 73.0 °F 51% 29.84 in 10.0 mi Variable 6.9 mph - N/A   Mostly Cloudy
12:56 PM 99.0 °F 108.5 °F 72.0 °F 42% 29.83 in 10.0 mi ENE 5.8 mph - N/A   Mostly Cloudy
1:56 PM 100.0 °F 108.6 °F 71.1 °F 39% 29.82 in 10.0 mi East 10.4 mph - N/A   Mostly Cloudy
2:56 PM 97.0 °F 107.0 °F 73.0 °F 46% 29.81 in 10.0 mi ENE 18.4 mph 24.2 mph N/A   Mostly Cloudy
3:56 PM 97.0 °F 107.0 °F 73.0 °F 46% 29.80 in 10.0 mi ESE 17.3 mph 27.6 mph N/A   Mostly Cloudy
4:56 PM 95.0 °F 105.2 °F 73.9 °F 50% 29.78 in 10.0 mi ESE 18.4 mph - N/A   Mostly Cloudy
5:56 PM 93.0 °F 101.9 °F 73.0 °F 52% 29.79 in 10.0 mi ESE 17.3 mph 27.6 mph N/A   Mostly Cloudy
6:56 PM 89.1 °F 99.1 °F 75.0 °F 63% 29.81 in 10.0 mi ESE 20.7 mph 25.3 mph N/A   Mostly Cloudy
7:56 PM 86.0 °F 95.1 °F 75.0 °F 70% 29.81 in 10.0 mi ESE 12.7 mph 21.9 mph N/A   Clear
8:56 PM 84.0 °F 93.7 °F 77.0 °F 79% 29.82 in 10.0 mi SE 11.5 mph - N/A   Clear
9:56 PM 84.0 °F 93.7 °F 77.0 °F 79% 29.85 in 10.0 mi SE 12.7 mph - N/A   Partly Cloudy
10:56 PM 84.0 °F 94.8 °F 78.1 °F 82% 29.86 in 10.0 mi SE 10.4 mph - N/A   Partly Cloudy
11:56 PM 82.9 °F 91.8 °F 77.0 °F 82% 29.87 in 10.0 mi SSE 9.2 mph - N/A   Clear